Date String (YYYY-MM-DD hh:mm:ss) UTC,Instrument flags,Ambient pressure (hPa),Sample flow (lpm),Bypass flow (lpm),Sample temperature (°C),Ambient temperature (°C),ASC tube jacket temperature (°C),LED temperature (°C),Box temperature (°C),Sample RH (%),Span deviation,Mass concentration (μg/m³),Mass concentration (μg/m³),Mass concentration (μg/m³)
DateTimeUTC,F1_M11,P_M11,Q1_M11,Q2_M11,T1_M11,T2_M11,T3_M11,T4_M11,T5_M11,U1_M11,ZSPAN_M11,X0_M11,X2_M11,X1_M11
2021-09-06 13:00:00,,0830.3,5.01,0.00,30.3,29.3,00.0,39.4,32.0,07.5,0004.3,0023.04,0015.79,0015.09
2021-09-06 13:01:00,,0830.4,5.00,0.00,30.3,29.3,00.0,39.4,32.0,07.5,0004.1,0023.08,0015.83,0015.12
2021-09-06 13:02:00,,0830.3,4.98,0.00,30.3,29.4,00.0,39.4,32.0,07.5,0004.0,0022.94,0015.82,0015.13
2021-09-06 13:03:00,,0830.4,4.99,0.00,30.3,29.4,00.0,39.4,32.0,07.4,0003.8,0022.99,0015.87,0015.16
2021-09-06 13:04:00,,0830.4,5.01,0.00,30.4,29.4,00.0,39.4,32.1,07.4,0003.6,0023.12,0015.85,0015.18
2021-09-06 13:05:00,,0830.4,5.00,0.00,30.4,29.4,00.0,39.4,32.1,07.5,0003.2,0023.56,0015.87,0015.22
2021-09-06 13:06:00,,0830.4,4.99,0.00,30.4,29.4,00.0,39.4,32.1,07.5,0002.6,0023.85,0015.94,0015.26
2021-09-06 13:07:00,,0830.4,5.00,0.00,30.4,29.4,00.0,39.4,32.1,07.6,0001.8,0023.34,0016.03,0015.32
2021-09-06 13:08:00,,0830.4,5.00,0.00,30.4,29.4,00.0,39.5,32.1,07.6,0001.3,0023.62,0016.05,0015.36
2021-09-06 13:09:00,,0830.4,5.00,0.00,30.4,29.4,00.0,39.5,32.1,07.7,0000.7,0023.71,0016.05,0015.37
2021-09-06 13:10:00,,0830.4,5.02,0.00,30.4,29.4,00.0,39.5,32.1,07.9,0000.3,0024.24,0016.03,0015.35
2021-09-06 13:11:00,,0830.4,5.00,0.00,30.4,29.4,00.0,39.5,32.1,07.8,0000.1,0024.15,0016.03,0015.37
2021-09-06 13:12:00,,0830.4,4.99,0.00,30.4,29.4,00.0,39.5,32.1,07.7,0000.2,0024.19,0016.03,0015.36
2021-09-06 13:13:00,,0830.4,5.01,0.00,30.5,29.5,00.0,39.5,32.1,07.7,0000.2,0024.25,0016.05,0015.37
2021-09-06 13:14:00,,0830.4,5.00,0.00,30.5,29.5,00.0,39.5,32.2,07.6,0000.2,0024.30,0016.05,0015.36
2021-09-06 13:15:00,,0830.4,5.01,0.00,30.5,29.5,00.0,39.5,32.2,07.6,0000.1,0024.21,0016.10,0015.34
2021-09-06 13:16:00,,0830.5,5.00,0.00,30.5,29.5,00.0,39.6,32.2,07.6,0000.6,0023.78,0016.09,0015.30
2021-09-06 13:17:00,,0830.5,5.00,0.00,30.5,29.5,00.0,39.6,32.2,07.5,0000.7,0023.18,0016.04,0015.26
2021-09-06 13:18:00,,0830.5,5.01,0.00,30.5,29.5,00.0,39.6,32.2,07.4,0001.2,0022.91,0015.97,0015.22
2021-09-06 13:19:00,,0830.5,5.01,0.00,30.5,29.5,00.0,39.6,32.2,07.4,0002.1,0022.58,0015.98,0015.21
2021-09-06 13:20:00,,0830.6,5.00,0.00,30.5,29.6,00.0,39.6,32.2,07.8,0003.2,0022.35,0015.98,0015.22
2021-09-06 13:21:00,,0830.5,4.98,0.00,30.5,29.6,00.0,39.6,32.3,08.1,0003.0,0021.62,0015.99,0015.22
2021-09-06 13:22:00,,0830.5,5.00,0.00,30.5,29.5,00.0,39.6,32.2,07.6,0002.2,0021.59,0016.01,0015.23
2021-09-06 13:23:00,,0830.5,5.01,0.00,30.5,27.9,00.0,39.6,31.8,07.7,0002.3,0021.85,0016.02,0015.24
2021-09-06 13:24:00,,0830.5,4.99,0.00,30.3,26.1,00.0,39.5,31.3,07.8,0002.6,0022.18,0016.08,0015.29
2021-09-06 13:25:00,,0830.5,5.00,0.00,30.1,26.1,00.0,39.5,31.3,07.8,0002.6,0022.33,0016.14,0015.34
2021-09-06 13:26:00,,0830.5,5.01,0.00,30.0,26.6,00.0,39.4,31.3,07.8,0002.7,0022.48,0016.15,0015.38
2021-09-06 13:27:00,,0830.5,5.00,0.00,30.0,27.0,00.0,39.4,31.3,08.1,0002.5,0022.57,0016.21,0015.44
2021-09-06 13:28:00,,0830.5,5.01,0.00,29.9,27.4,00.0,39.3,31.4,08.2,0002.5,0022.64,0016.26,0015.50
2021-09-06 13:29:00,,0830.4,4.99,0.00,29.9,27.7,00.0,39.3,31.4,08.2,0002.1,0022.82,0016.36,0015.59
2021-09-06 13:30:00,,0830.5,5.01,0.00,29.9,28.0,00.0,39.2,31.4,08.1,0002.0,0023.42,0016.46,0015.67
2021-09-06 13:31:00,,0830.5,5.00,0.00,29.9,28.2,00.0,39.2,31.5,07.8,0001.1,0023.96,0016.61,0015.78
2021-09-06 13:32:00,,0830.5,5.00,0.00,29.9,28.3,00.0,39.2,31.5,07.8,0001.4,0025.05,0016.74,0015.92
2021-09-06 13:33:00,,0830.5,4.99,0.00,29.9,28.5,00.0,39.2,31.6,07.9,0002.4,0025.49,0016.87,0016.05
2021-09-06 13:34:00,,0830.5,5.00,0.00,30.0,28.6,00.0,39.2,31.6,08.1,0002.5,0025.52,0017.00,0016.17
2021-09-06 13:35:00,,0830.5,5.00,0.00,30.0,28.7,00.0,39.2,31.7,08.0,0002.8,0025.65,0017.08,0016.25
2021-09-06 13:36:00,,0830.5,5.00,0.00,30.0,28.8,00.0,39.2,31.7,08.0,0002.6,0026.15,0017.19,0016.34
2021-09-06 13:37:00,,0830.5,5.00,0.00,30.0,28.9,00.0,39.2,31.7,07.9,0002.9,0027.02,0017.28,0016.42
2021-09-06 13:38:00,,0830.5,5.01,0.00,30.0,28.9,00.0,39.2,31.8,07.9,0003.0,0027.70,0017.43,0016.57
2021-09-06 13:39:00,,0830.5,5.00,0.00,30.1,29.0,00.0,39.2,31.8,08.0,0003.2,0028.19,0017.56,0016.69
2021-09-06 13:40:00,,0830.6,4.99,0.00,30.1,29.0,00.0,39.2,31.8,08.4,0003.2,0028.21,0017.62,0016.77
2021-09-06 13:41:00,,0830.5,4.99,0.00,30.1,29.1,00.0,39.2,31.8,08.6,0003.0,0027.64,0017.70,0016.86
2021-09-06 13:42:00,,0830.5,5.02,0.00,30.1,29.1,00.0,39.2,31.9,08.6,0003.1,0026.90,0017.78,0016.96
2021-09-06 13:43:00,,0830.6,5.00,0.00,30.1,29.2,00.0,39.2,31.9,08.6,0002.8,0026.06,0017.84,0017.01
2021-09-06 13:44:00,,0830.5,5.01,0.00,30.2,29.2,00.0,39.2,31.9,08.2,0002.6,0026.19,0017.95,0017.09
2021-09-06 13:45:00,,0830.5,4.98,0.00,30.2,29.2,00.0,39.2,31.9,08.4,0002.1,0026.40,0018.02,0017.18
2021-09-06 13:46:00,,0830.5,5.00,0.00,30.2,29.3,00.0,39.2,32.0,07.9,0001.3,0026.18,0018.11,0017.26
2021-09-06 13:47:00,,0830.5,5.02,0.00,30.2,29.3,00.0,39.3,32.0,08.0,0001.4,0025.74,0018.16,0017.33
2021-09-06 13:48:00,,0830.5,5.00,0.00,30.2,29.3,00.0,39.3,32.0,07.7,0001.2,0025.18,0018.23,0017.41
2021-09-06 13:49:00,,0830.5,5.00,0.00,30.2,29.3,00.0,39.3,32.0,07.7,0000.6,0024.99,0018.29,0017.48
2021-09-06 13:50:00,,0830.5,5.01,0.00,30.3,29.4,00.0,39.3,32.0,07.7,0000.4,0024.78,0018.39,0017.56
2021-09-06 13:51:00,,0830.5,5.00,0.00,30.3,29.4,00.0,39.3,32.0,07.7,0000.4,0025.06,0018.56,0017.70
2021-09-06 13:52:00,,0830.5,5.01,0.00,30.3,29.4,00.0,39.3,32.1,07.6,0000.9,0025.68,0018.68,0017.81
2021-09-06 13:53:00,,0830.5,5.00,0.00,30.3,29.4,00.0,39.3,32.1,07.9,0001.1,0026.09,0018.78,0017.90
2021-09-06 13:54:00,,0830.5,5.00,0.00,30.3,29.4,00.0,39.4,32.1,08.0,0000.9,0026.53,0018.93,0018.04
2021-09-06 13:55:00,,0830.5,5.00,0.00,30.4,29.4,00.0,39.4,32.1,07.8,0000.5,0026.75,0019.00,0018.14
2021-09-06 13:56:00,,0830.5,5.01,0.00,30.4,29.5,00.0,39.4,32.1,07.7,0000.8,0026.80,0019.12,0018.25
2021-09-06 13:57:00,,0830.5,5.00,0.00,30.4,29.5,00.0,39.4,32.1,08.0,0000.9,0026.88,0019.22,0018.36
2021-09-06 13:58:00,,0830.5,5.00,0.00,30.4,29.5,00.0,39.4,32.1,08.1,0000.7,0026.98,0019.30,0018.46
2021-09-06 13:59:00,,0830.5,4.99,0.00,30.4,29.5,00.0,39.4,32.1,08.1,0001.1,0027.29,0019.43,0018.54
